Location: ??????
(42.0089°N, 44.3281°E)
Time: 18:35:31
(UTC+00:00)

USA 267 - Pass Details

Date: 30 May 2022
Orbit: 1101 x 1106 km, 123.0° (Epoch: 28 June)

Event Time Altitude Azimuth Distance (km) Brightness Sun altitude
Exits shadow 21:15:05 - 113° (ESE) 3,036 5.4 -26.0°
Reaches altitude 10° 21:15:18 10° 112° (ESE) 2,954 5.3 -26.0°
Maximum altitude 21:21:42 61° 35° (NE) 1,238 3.7 -25.9°
Drops below altitude 10° 21:28:07 10° 317° (NW) 2,965 6.0 -25.8°
Sets 21:30:38 0° 314° (NW) 3,925 6.6 -25.7°
